29P/Schwassmann-Wachmann 1 (2019)

Japanese version
Home page
Updated on October 12, 2014

---------------------------------------------------------------------

* Profile

* Pictures

* Orbital Elements

Epoch 2019 Mar. 18.0 TT = JDT 2458560.5
T 2019 Mar. 7.75542 TT                                  MPC
q   5.7668226            (2000.0)            P               Q
n   0.06662630     Peri.   47.77430     +0.99270158     -0.00956901
a   6.0261361      Node   312.39468     -0.05135176     +0.86841745
e   0.0430315      Incl.    9.36834     +0.10911724     +0.49574144
P  14.8
From 16450 observations 1902 Mar. 5-2012 Apr. 28, mean residual 0".6.

* Finding Charts

* Magnitudes Graph

        m1 = 4.0 + 5 log d + 7.5 log r

---------------------------------------------------------------------

The orbital elements are published on M.P.E.C. 2012-H90.
The charts are made with StellaNavigator Ver.8 (AstroArts).
The magnitudes graphs are made with Comet for Windows.

---------------------------------------------------------------------

Copyright(C) Seiichi Yoshida (comet@aerith.net). All rights reserved.